Overview Statistics Trail Chart Weather Telemetry Raw packets
 

This is the latest recevied weather packets stored in our database for station/object HOWARD. If no packets are shown the sender has not sent any weather packets the latest 10 day(s).

<< 30 31 32 33 34 35 36 >>
Time Temp. Humidity Pressure Rain* Wind** Luminosity Snow
1788221682 17.22° C 26% 1015.2 hPa 0 mm - - -
1788221082 17.22° C - 1015.3 hPa 0 mm - - -
1788220482 17.22° C 26% 1015.6 hPa 0 mm - - -
1788219924 16.67° C 26% 1015 hPa 0 mm - - -
1788219882 16.67° C 26% 1015 hPa 0 mm - - -
1788219282 17.22° C 24% 1015.1 hPa 0 mm - - -
1788218682 17.22° C 25% 1015.2 hPa 0 mm - - -
1788218082 17.22° C 24% 1015.3 hPa 0 mm - - -
1788217482 17.22° C 25% 1015.4 hPa 0 mm - - -
1788216882 17.22° C 25% 1015.3 hPa 0 mm - - -
1788216282 16.67° C 26% 1015.4 hPa 0 mm - - -
1788215682 16.67° C 28% 1015.6 hPa 0 mm - - -
1788215082 16.67° C 27% 1015.7 hPa 0 mm - - -
1788214482 17.78° C 27% 1015.7 hPa 0 mm - - -
1788213882 16.67° C 31% 1015.9 hPa 0 mm - - -
1788213282 16.67° C 31% 1015.9 hPa 0 mm - - -
1788212742 16.67° C 31% 1016.1 hPa 0 mm - - -
1788212682 16.67° C 31% 1016.1 hPa 0 mm - - -
1788212082 16.67° C 32% 1016.2 hPa 0 mm - - -
1788211482 16.11° C 33% 1016.4 hPa 0 mm - - -
1788210882 16.11° C 32% 1016.5 hPa 0 mm - - -
1788210281 15.56° C 34% 1016.5 hPa 0 mm - - -
1788209681 15.56° C 33% 1016.5 hPa 0 mm - - -
1788209081 15.56° C 33% 1016.5 hPa 0 mm - - -
1788208482 15.56° C 33% 1016.5 hPa 0 mm - - -

* Rain latest hour (hover to see other rain measurements)
** Current wind speed in m/s (hover to see current wind gust speed)